WB2COY Weather Reports


time (UTC)temp
F
wind
direction
speed
knots
gust
knots
rain 1hr
in
rain 24hr
in
rain mn
in
humidity
%
barometer
mb
20260831090036 63 0.0 0.0 0.00 0.01 0.00 79 1019.7
20260831083017 63 0.0 0.9 0.00 0.01 0.00 76 1019.4
20260831080017 63 0.0 0.0 0.00 0.01 0.00 73 1019.4
20260831073016 64 0.0 0.0 0.00 0.01 0.00 71 1019.2
20260831070056 65 0.0 0.9 0.00 0.01 0.00 69 1019.3
20260831063015 66 0.0 0.9 0.00 0.01 0.00 69 1019.2
20260831060016 67 0.0 0.9 0.00 0.01 0.00 68 1019.0
20260831053015 68 23 0.9 1.7 0.00 0.01 0.00 66 1019.1
20260831050015 68 0.0 1.7 0.00 0.01 0.00 66 1018.9
20260831043015 69 0.0 1.7 0.00 0.01 0.00 67 1019.1
20260831040015 69 0.0 0.9 0.00 0.01 0.01 65 1019.0
20260831033037 70 23 0.9 4.3 0.00 0.01 0.01 64 1018.7
20260831030016 70 0.0 1.7 0.01 0.01 0.01 64 1019.1
20260831023017 71 0.0 0.9 0.01 0.01 0.01 72 1019.2
20260831020021 72 0.0 0.9 0.00 0.00 0.00 70 1019.1
20260831013017 72 0.0 0.0 0.00 0.00 0.00 68 1018.7
20260831010015 73 0.0 0.0 0.00 0.00 0.00 67 1018.4
20260831003015 73 0.0 1.7 0.00 0.00 0.00 66 1017.9
20260831000036 73 0.0 0.0 0.00 0.00 0.00 68 1017.5
20260830233015 73 0.0 1.7 0.00 0.00 0.00 68 1017.2
20260830230035 73 0.0 0.9 0.00 0.00 0.00 68 1017.3
20260830223015 75 0.0 1.7 0.00 0.00 0.00 66 1017.4
20260830220015 75 0.0 3.5 0.00 0.00 0.00 65 1017.3
20260830213016 76 0.0 3.5 0.00 0.00 0.00 64 1017.1
20260830210015 76 248 0.9 4.3 0.00 0.00 0.00 63 1017.4
20260830203016 77 225 0.9 4.3 0.00 0.00 0.00 60 1017.5
20260830200016 78 225 0.9 3.5 0.00 0.00 0.00 60 1017.7
20260830193017 77 225 0.9 4.3 0.00 0.00 0.00 59 1017.8
20260830190017 77 225 0.9 5.2 0.00 0.00 0.00 57 1018.2
20260830183017 77 225 1.7 6.1 0.00 0.00 0.00 56 1018.6
20260830180015 78 225 0.9 5.2 0.00 0.00 0.00 54 1019.0
20260830173017 81 225 1.7 7.0 0.00 0.00 0.00 48 1019.1
20260830170017 81 225 0.9 7.0 0.00 0.00 0.00 46 1019.4
20260830163016 79 225 0.9 6.1 0.00 0.00 0.00 49 1019.7
20260830160018 79 203 0.9 5.2 0.00 0.00 0.00 46 1020.1
20260830153023 77 225 0.9 6.1 0.00 0.00 0.00 47 1020.7
20260830150016 76 0.0 4.3 0.00 0.00 0.00 48 1020.9
20260830143018 74 0.0 2.6 0.00 0.00 0.00 55 1021.1
20260830140016 72 0.0 1.7 0.00 0.00 0.00 55 1021.2
20260830133036 70 0.0 1.7 0.00 0.00 0.00 57 1021.3
20260830130017 69 0.0 1.7 0.00 0.00 0.00 59 1021.6
20260830123017 67 0.0 0.9 0.00 0.00 0.00 62 1022.0
20260830120017 64 0.0 0.0 0.00 0.00 0.00 66 1022.1
20260830113017 61 0.0 0.0 0.00 0.00 0.00 72 1022.4
20260830110021 60 0.0 0.0 0.00 0.00 0.00 71 1022.3
20260830103016 60 0.0 0.0 0.00 0.00 0.00 72 1022.0
20260830100016 60 0.0 0.0 0.00 0.00 0.00 72 1022.0
20260830093036 60 0.0 0.0 0.00 0.00 0.00 71 1022.2